Year,Month,Day,Hour,Minute,Value (Times are PST for temperature in C)
2014,08,16,11,03,17.90
2014,08,16,11,04,17.90
2014,08,16,11,05,17.90
2014,08,16,11,06,17.90
2014,08,16,11,07,18.00
2014,08,16,11,08,18.10
2014,08,16,11,09,18.20
2014,08,16,11,10,18.30
2014,08,16,11,11,18.40
2014,08,16,11,12,18.50
2014,08,16,11,13,18.70
2014,08,16,11,14,18.80
2014,08,16,11,15,18.90
2014,08,16,11,16,19.00
2014,08,16,11,17,19.10
2014,08,16,11,18,19.30
2014,08,16,11,19,19.40
2014,08,16,11,20,19.50
2014,08,16,11,21,19.60
2014,08,16,11,22,19.60
2014,08,16,11,23,19.70
2014,08,16,11,24,19.80
2014,08,16,11,25,19.90
2014,08,16,11,26,20.00
2014,08,16,11,27,20.10
2014,08,16,11,28,20.20
2014,08,16,11,29,20.20
2014,08,16,11,30,20.30
2014,08,16,11,31,20.40
2014,08,16,11,32,20.40
2014,08,16,11,33,20.50
2014,08,16,11,34,20.50
2014,08,16,11,35,20.50
2014,08,16,11,36,20.50
2014,08,16,11,37,20.50
2014,08,16,11,38,20.50
2014,08,16,11,39,20.50
2014,08,16,11,40,20.50
2014,08,16,11,41,20.50
2014,08,16,11,42,20.50
2014,08,16,11,43,20.50
2014,08,16,11,44,20.40
2014,08,16,11,45,20.30
2014,08,16,11,46,20.20
2014,08,16,11,47,20.20
2014,08,16,11,48,20.20
2014,08,16,11,49,20.20
2014,08,16,11,50,20.20
2014,08,16,11,51,20.20
2014,08,16,11,52,20.10
2014,08,16,11,53,20.10
2014,08,16,11,54,20.10
2014,08,16,11,55,19.90
2014,08,16,11,56,19.90
2014,08,16,11,57,19.90
2014,08,16,11,58,19.90
2014,08,16,11,59,19.90
2014,08,16,12,00,19.90
2014,08,16,12,01,19.80
2014,08,16,12,02,19.80
2014,08,16,12,03,19.70
2014,08,16,12,04,19.70
2014,08,16,12,05,19.70
2014,08,16,12,06,19.70
2014,08,16,12,07,19.80
2014,08,16,12,08,19.80
2014,08,16,12,09,19.90
2014,08,16,12,10,19.90
2014,08,16,12,11,19.90
2014,08,16,12,12,19.90
2014,08,16,12,13,19.90
2014,08,16,12,14,19.90
2014,08,16,12,15,19.90
2014,08,16,12,16,19.90
2014,08,16,12,17,19.90
2014,08,16,12,18,19.90
2014,08,16,12,19,19.90
2014,08,16,12,20,19.90
2014,08,16,12,21,19.90
2014,08,16,12,22,19.90
2014,08,16,12,23,19.90
2014,08,16,12,24,20.00
2014,08,16,12,25,20.10
2014,08,16,12,26,20.10
2014,08,16,12,27,20.10
2014,08,16,12,28,20.20
2014,08,16,12,29,20.20
2014,08,16,12,30,20.20
2014,08,16,12,31,20.20
2014,08,16,12,32,20.20
2014,08,16,12,33,20.20
2014,08,16,12,34,20.20
2014,08,16,12,35,20.10
2014,08,16,12,36,20.10
2014,08,16,12,37,20.10
2014,08,16,12,38,20.10
2014,08,16,12,39,20.20
2014,08,16,12,40,20.10
2014,08,16,12,41,20.10
2014,08,16,12,42,20.00
2014,08,16,12,43,19.90
2014,08,16,12,44,19.90
2014,08,16,12,45,20.00
2014,08,16,12,46,20.10
2014,08,16,12,47,20.10
2014,08,16,12,48,20.10
2014,08,16,12,49,20.10
2014,08,16,12,50,20.20
2014,08,16,12,51,20.20
2014,08,16,12,52,20.10
2014,08,16,12,53,20.10
2014,08,16,12,54,20.10
2014,08,16,12,55,20.10
2014,08,16,12,56,20.10
2014,08,16,12,57,20.20
2014,08,16,12,58,20.10
2014,08,16,12,59,20.10
2014,08,16,13,00,20.10
2014,08,16,13,01,20.10
2014,08,16,13,02,20.10
2014,08,16,13,03,20.10
2014,08,16,13,04,20.10
2014,08,16,13,05,20.20
2014,08,16,13,06,20.10
2014,08,16,13,07,20.10
2014,08,16,13,08,20.10
2014,08,16,13,09,20.10
2014,08,16,13,10,20.10
2014,08,16,13,11,20.10
2014,08,16,13,12,20.20
2014,08,16,13,13,20.20
2014,08,16,13,14,20.20
2014,08,16,13,15,20.20
2014,08,16,13,16,20.20
2014,08,16,13,17,20.30
2014,08,16,13,18,20.40
2014,08,16,13,19,20.40
2014,08,16,13,20,20.50
2014,08,16,13,21,20.50
2014,08,16,13,22,20.50
2014,08,16,13,23,20.60
2014,08,16,13,24,20.70
2014,08,16,13,25,20.80
2014,08,16,13,26,20.90
2014,08,16,13,27,21.00
2014,08,16,13,28,21.00
2014,08,16,13,29,21.10
2014,08,16,13,30,21.10
2014,08,16,13,31,21.30
2014,08,16,13,32,21.30
2014,08,16,13,33,21.30
2014,08,16,13,34,21.30
2014,08,16,13,35,21.30
2014,08,16,13,36,21.30
2014,08,16,13,37,21.30
2014,08,16,13,38,21.30
2014,08,16,13,39,21.20
2014,08,16,13,40,21.20
2014,08,16,13,41,21.20
2014,08,16,13,42,21.20
2014,08,16,13,43,21.10
2014,08,16,13,44,21.20
2014,08,16,13,45,21.20
2014,08,16,13,46,21.30
2014,08,16,13,47,21.30
2014,08,16,13,48,21.20
2014,08,16,13,49,21.20
2014,08,16,13,50,21.30
2014,08,16,13,51,21.30
2014,08,16,13,52,21.30
2014,08,16,13,53,21.30
2014,08,16,13,54,21.30
2014,08,16,13,55,21.20
2014,08,16,13,56,21.20
2014,08,16,13,57,21.20
2014,08,16,13,58,21.20
2014,08,16,13,59,21.30
2014,08,16,14,00,21.30
2014,08,16,14,01,21.30
2014,08,16,14,02,21.30
2014,08,16,14,03,21.40
2014,08,16,14,04,21.40
2014,08,16,14,05,21.40
2014,08,16,14,06,21.40
2014,08,16,14,07,21.40
2014,08,16,14,08,21.40
2014,08,16,14,09,21.40
2014,08,16,14,10,21.50
2014,08,16,14,11,21.60
2014,08,16,14,12,21.60
2014,08,16,14,13,21.70
2014,08,16,14,14,21.70
2014,08,16,14,15,21.70
2014,08,16,14,16,21.80
2014,08,16,14,17,21.80
2014,08,16,14,18,21.80
2014,08,16,14,19,21.90
2014,08,16,14,20,22.00
2014,08,16,14,21,22.00
2014,08,16,14,22,22.00
2014,08,16,14,23,22.00
2014,08,16,14,24,21.90
2014,08,16,14,25,21.70
2014,08,16,14,26,21.60
2014,08,16,14,27,21.60
2014,08,16,14,28,21.60
2014,08,16,14,29,21.60
2014,08,16,14,30,21.60
2014,08,16,14,31,21.60
2014,08,16,14,32,21.70
2014,08,16,14,33,21.80
2014,08,16,14,34,21.80
2014,08,16,14,35,21.90
2014,08,16,14,36,21.90
2014,08,16,14,37,21.90
2014,08,16,14,38,21.80
2014,08,16,14,39,21.80
2014,08,16,14,40,21.70
2014,08,16,14,41,21.70
2014,08,16,14,42,21.70
2014,08,16,14,43,21.70
2014,08,16,14,44,21.70
2014,08,16,14,45,21.80
2014,08,16,14,46,21.90
2014,08,16,14,47,21.90
2014,08,16,14,48,22.10
2014,08,16,14,49,22.10
2014,08,16,14,50,22.10
2014,08,16,14,51,22.20
2014,08,16,14,52,22.20
2014,08,16,14,53,22.20
2014,08,16,14,54,22.10
2014,08,16,14,55,22.00
2014,08,16,14,56,21.90
2014,08,16,14,57,22.00
2014,08,16,14,58,22.10
2014,08,16,14,59,22.10
2014,08,16,15,00,22.20
2014,08,16,15,01,22.10
2014,08,16,15,02,21.90
2014,08,16,15,03,21.80
2014,08,16,15,04,21.70
2014,08,16,15,05,21.80
2014,08,16,15,06,21.90
2014,08,16,15,07,22.00
2014,08,16,15,08,22.00
2014,08,16,15,09,22.00
2014,08,16,15,10,22.20
2014,08,16,15,11,22.30
2014,08,16,15,12,22.50
2014,08,16,15,13,22.50
2014,08,16,15,14,22.50
2014,08,16,15,15,22.40
2014,08,16,15,16,22.40
2014,08,16,15,17,22.40
2014,08,16,15,18,22.40
2014,08,16,15,19,22.40
2014,08,16,15,20,22.40
2014,08,16,15,21,22.40
2014,08,16,15,22,22.40
2014,08,16,15,23,22.50
2014,08,16,15,24,22.60
2014,08,16,15,25,22.60
2014,08,16,15,26,22.40
2014,08,16,15,27,22.30
2014,08,16,15,28,22.30
2014,08,16,15,29,22.30
2014,08,16,15,30,22.30
2014,08,16,15,31,22.30
2014,08,16,15,32,22.30
2014,08,16,15,33,22.30
2014,08,16,15,34,22.30
2014,08,16,15,35,22.10
2014,08,16,15,36,21.90
2014,08,16,15,37,21.80
2014,08,16,15,38,21.70
2014,08,16,15,39,21.70
2014,08,16,15,40,21.70
2014,08,16,15,41,21.70
2014,08,16,15,42,21.70
2014,08,16,15,43,21.70
2014,08,16,15,44,21.70
2014,08,16,15,45,21.80
2014,08,16,15,46,21.90
2014,08,16,15,47,22.00
2014,08,16,15,48,22.00
2014,08,16,15,49,22.00
2014,08,16,15,50,22.00
2014,08,16,15,51,22.20
2014,08,16,15,52,22.30
2014,08,16,15,53,22.50
2014,08,16,15,54,22.60
2014,08,16,15,55,22.60
2014,08,16,15,56,22.60
2014,08,16,15,57,22.40
2014,08,16,15,58,22.20
2014,08,16,15,59,22.10
2014,08,16,16,00,22.10
2014,08,16,16,01,22.20
2014,08,16,16,02,22.20
2014,08,16,16,03,22.30
2014,08,16,16,04,22.40
2014,08,16,16,05,22.50
2014,08,16,16,06,22.40
2014,08,16,16,07,22.30
2014,08,16,16,08,22.30
2014,08,16,16,09,22.30
2014,08,16,16,10,22.30
2014,08,16,16,11,22.40
2014,08,16,16,12,22.50
2014,08,16,16,13,22.60
2014,08,16,16,14,22.70
2014,08,16,16,15,22.60
2014,08,16,16,16,22.70
2014,08,16,16,17,22.80
2014,08,16,16,18,22.90
2014,08,16,16,19,22.90
2014,08,16,16,20,23.00
2014,08,16,16,21,23.10
2014,08,16,16,22,23.20
2014,08,16,16,23,23.20
2014,08,16,16,24,23.10
2014,08,16,16,25,22.90
2014,08,16,16,26,22.90
2014,08,16,16,27,22.90
2014,08,16,16,28,22.90
2014,08,16,16,29,22.90
2014,08,16,16,30,22.80
2014,08,16,16,31,22.80
2014,08,16,16,32,22.80
2014,08,16,16,33,22.80
2014,08,16,16,34,22.90
2014,08,16,16,35,22.90
2014,08,16,16,36,23.00
2014,08,16,16,37,23.10
2014,08,16,16,38,23.10
2014,08,16,16,39,23.10
2014,08,16,16,40,23.10
2014,08,16,16,41,22.90
2014,08,16,16,42,22.90
2014,08,16,16,43,22.90
2014,08,16,16,44,23.00
2014,08,16,16,45,23.00
2014,08,16,16,46,22.90
2014,08,16,16,47,22.80
2014,08,16,16,48,22.80
2014,08,16,16,49,22.80
2014,08,16,16,50,22.70
2014,08,16,16,51,22.80
2014,08,16,16,52,22.70
2014,08,16,16,53,22.70
2014,08,16,16,54,22.70
2014,08,16,16,55,22.70
2014,08,16,16,56,22.70
2014,08,16,16,57,22.70
2014,08,16,16,58,22.80
2014,08,16,16,59,22.80
2014,08,16,17,00,22.80
2014,08,16,17,01,22.80
2014,08,16,17,02,22.80
2014,08,16,17,03,22.70
2014,08,16,17,04,22.70
2014,08,16,17,05,22.80
2014,08,16,17,06,22.90
2014,08,16,17,07,22.80
2014,08,16,17,08,22.90
2014,08,16,17,09,23.00
2014,08,16,17,10,23.10
2014,08,16,17,11,23.20
2014,08,16,17,12,23.30
2014,08,16,17,13,23.30
2014,08,16,17,14,23.30
2014,08,16,17,15,23.30
2014,08,16,17,16,23.30
2014,08,16,17,17,23.40
2014,08,16,17,18,23.50
2014,08,16,17,19,23.70
2014,08,16,17,20,23.80
2014,08,16,17,21,23.80
2014,08,16,17,22,23.80
2014,08,16,17,23,23.70
2014,08,16,17,24,23.70
2014,08,16,17,25,23.70
2014,08,16,17,26,23.70
2014,08,16,17,27,23.70
2014,08,16,17,28,23.70
2014,08,16,17,29,23.70
2014,08,16,17,30,23.60
2014,08,16,17,31,23.50
2014,08,16,17,32,23.50
2014,08,16,17,33,23.60
2014,08,16,17,34,23.40
2014,08,16,17,35,23.50
2014,08,16,17,36,23.60
2014,08,16,17,37,23.60
2014,08,16,17,38,23.60
2014,08,16,17,39,23.60
2014,08,16,17,40,23.60
2014,08,16,17,41,23.60
2014,08,16,17,42,23.70
2014,08,16,17,43,23.60
2014,08,16,17,44,23.40
2014,08,16,17,45,23.30
2014,08,16,17,46,23.20
2014,08,16,17,47,23.20
2014,08,16,17,48,23.20
2014,08,16,17,49,23.20
2014,08,16,17,50,23.20
2014,08,16,17,51,23.10
2014,08,16,17,52,23.10
2014,08,16,17,53,23.10
2014,08,16,17,54,23.10
2014,08,16,17,55,23.00
2014,08,16,17,56,22.90
2014,08,16,17,57,22.90
2014,08,16,17,58,22.90
2014,08,16,17,59,22.90
2014,08,16,18,00,22.90
2014,08,16,18,01,22.80
2014,08,16,18,02,22.70
2014,08,16,18,03,22.70
2014,08,16,18,04,22.70
2014,08,16,18,05,22.60
2014,08,16,18,06,22.60
2014,08,16,18,07,22.60
2014,08,16,18,08,22.60
2014,08,16,18,09,22.60
2014,08,16,18,10,22.60
2014,08,16,18,11,22.60
2014,08,16,18,12,22.60
2014,08,16,18,13,22.50
2014,08,16,18,14,22.40
2014,08,16,18,15,22.30
2014,08,16,18,16,22.30
2014,08,16,18,17,22.30
2014,08,16,18,18,22.30
2014,08,16,18,19,22.40
2014,08,16,18,20,22.30
2014,08,16,18,21,22.30
2014,08,16,18,22,22.30
2014,08,16,18,23,22.30
2014,08,16,18,24,22.40
2014,08,16,18,25,22.40
2014,08,16,18,26,22.30
2014,08,16,18,27,22.30
2014,08,16,18,28,22.30
2014,08,16,18,29,22.30
2014,08,16,18,30,22.30
2014,08,16,18,31,22.30
2014,08,16,18,32,22.30
2014,08,16,18,33,22.40
2014,08,16,18,34,22.40
2014,08,16,18,35,22.40
2014,08,16,18,36,22.40
2014,08,16,18,37,22.40
2014,08,16,18,38,22.50
2014,08,16,18,39,22.50
2014,08,16,18,40,22.50
2014,08,16,18,41,22.40
2014,08,16,18,42,22.40
2014,08,16,18,43,22.40
2014,08,16,18,44,22.40
2014,08,16,18,45,22.30
2014,08,16,18,46,22.30
2014,08,16,18,47,22.30
2014,08,16,18,48,22.30
2014,08,16,18,49,22.30
2014,08,16,18,50,22.30
2014,08,16,18,51,22.40
2014,08,16,18,52,22.50
2014,08,16,18,53,22.50
2014,08,16,18,54,22.40
2014,08,16,18,55,22.30
2014,08,16,18,56,22.30
2014,08,16,18,57,22.20
2014,08,16,18,58,22.20
2014,08,16,18,59,22.20
2014,08,16,19,00,22.10
2014,08,16,19,01,22.10
2014,08,16,19,02,22.10
2014,08,16,19,03,22.00
2014,08,16,19,04,22.00
2014,08,16,19,05,22.10
2014,08,16,19,06,22.10
2014,08,16,19,07,22.00
2014,08,16,19,08,22.00
2014,08,16,19,09,21.90
2014,08,16,19,10,21.90
2014,08,16,19,11,21.90
2014,08,16,19,12,21.90
2014,08,16,19,13,21.90
2014,08,16,19,14,21.90
2014,08,16,19,15,21.90
2014,08,16,19,16,21.80
2014,08,16,19,17,21.70
2014,08,16,19,18,21.60
2014,08,16,19,19,21.60
2014,08,16,19,20,21.60
2014,08,16,19,21,21.60
2014,08,16,19,22,21.60
2014,08,16,19,23,21.60
2014,08,16,19,24,21.60
2014,08,16,19,25,21.60
2014,08,16,19,26,21.60
2014,08,16,19,27,21.60
2014,08,16,19,28,21.60
2014,08,16,19,29,21.60
